Regional Weather Roundup
Issued by NWS

Home | Current Version | Previous Version | Text Only | Print | Product List | Glossary On
Versions: 1 2 3 4 5 6 7 8 9 10 11 12 13 14 15 16 17 18 19 20 21 22 23 24 25 26 27 28 29 30 31 32 33 34 35 36 37 38 39 40 41 42 43 44 45 46 47 48 49 50
259
ASUS43 KLOT 250308
RWRIL

ILLINOIS REGIONAL WEATHER ROUNDUP
NATIONAL WEATHER SERVICE CHICAGO/ROMEOVILLE IL
1000 PM CDT MON APR 24 2017

NOTE: "FAIR" INDICATES FEW OR NO CLOUDS BELOW 12,000 FEET WITH NO
SIGNIFICANT WEATHER AND/OR OBSTRUCTIONS TO VISIBILITY.

* THESE STATIONS ARE NOT UNDER NWS QUALITY CONTROL. THEY ALSO MAY NOT
  REPORT WEATHER SUCH AS PRECIPITATION OR FOG.

ILZ001-002-007-009-015-016-024-250400-
NORTHWEST ILLINOIS

CITY           SKY/WX    TMP DP  RH WIND       PRES   REMARKS
MOLINE         PTCLDY    62  32  32 SE9       29.67S
STERLING*      CLOUDY    61  31  32 E9        29.71F
SAVANNA*       PTCLDY    65  27  23 SE12G17   29.69R
$$

ILZ003-004-008-010-011-017-018-250400-
NORTH CENTRAL ILLINOIS

CITY           SKY/WX    TMP DP  RH WIND       PRES   REMARKS
ROCKFORD       CLOUDY    62  31  31 SE10      29.75F
FREEPORT*      CLOUDY    56  33  41 E9        29.74S
ROCHELLE*      CLOUDY    55  34  46 E10       29.76S
DE KALB*       CLOUDY    54  33  46 E9        29.77S
PERU*          CLOUDY    63  30  28 SE10      29.74S
$$

ILZ005-006-012>014-019>023-250400-
NORTHEAST ILLINOIS

CITY           SKY/WX    TMP DP  RH WIND       PRES   REMARKS
CHICAGO-OHARE  PTCLDY    54  35  48 CALM      29.77S
CHICAGO-MIDWAY PTCLDY    59  39  47 E8        29.77S
AURORA         CLEAR     56  34  43 E9        29.77R
LANSING*       PTCLDY    57  42  58 E6        29.77S
JOLIET*        CLEAR     58  38  48 E6        29.76S
WAUKEGAN       CLEAR     45  36  70 CALM      29.79R
DUPAGE AIRPORT CLEAR     57  33  40 E3        29.76R
KANKAKEE*      CLEAR     60  37  42 E10       29.76S
WHEELING       CLEAR     52  36  54 CALM      29.79S
MORRIS*        CLEAR     62  35  37 CALM      29.74R
ROMEOVILLE*    CLEAR     56  40  55 E7        29.76S
NORTHERLY ISL    N/A     55  41  59 SE5         N/A
$$

LMZ740>746-250400-
SOUTHERN LAKE MICHIGAN

STATION/POSITION SKY/WX   TEMP    WIND        PRES    VSBY  WAVE
                          AIR SEA DIR/SP/G                  HT/PER
                          (F)     (DEG/KT/KT) (MB)    (MI)  (FT/S)
SOUTHERN BUOY              49 42   70/  8/ 10 1009.4          1
HARRISON CRIB              57     120/ 17/ 18   N/A
BURNHAM HARBOR             56     110/  7/  7   N/A
CALUMET HARBOR             58     100/  7/  9 1007.9S
BURNS HARBOR               65     110/ 13/ 17 1008.8F
MICHIGAN CITY              64     100/ 11/ 14   N/A
ST. JOSEPH                 61 52  140/ 12/ 17 1009.2          1/ 2
$$

ILZ025>027-034>036-040-047-049-050-058-095>099-250400-
WEST-CENTRAL ILLINOIS

CITY           SKY/WX    TMP DP  RH WIND       PRES   REMARKS
QUINCY         CLEAR     59  33  37 SE6       29.68R
GALESBURG*     CLEAR     62  31  31 E6        29.68F
MACOMB*        CLEAR     59  28  30 S7        29.71S
JACKSONVILLE*  CLEAR     59  33  37 SE6       29.70F
PITTSFIELD*    CLEAR     61  36  39 SE8       29.70S
$$

ILZ028>032-037-038-041>044-048-051>054-059>061-250400-
CENTRAL ILLINOIS

CITY           SKY/WX    TMP DP  RH WIND       PRES   REMARKS
PONTIAC        CLEAR     60  37  42 E9        29.74S
BLOOMINGTON    CLEAR     61  33  35 SE10      29.74S
DECATUR        CLEAR     56  36  47 S6        29.73S
PEORIA         CLEAR     66  27  23 SE7       29.72R
LACON*         CLOUDY    63  30  29 SE8       29.72R
LINCOLN*       CLEAR     58  34  39 CALM      29.72R
SPRINGFIELD    CLEAR     62  31  31 S7        29.72R
TAYLORVILLE    CLEAR     60  33  37 SE7       29.72F
$$

ILZ033-039-045-046-055>057-062-063-250400-
EAST-CENTRAL ILLINOIS

CITY           SKY/WX    TMP DP  RH WIND       PRES   REMARKS
CHAMPAIGN      CLEAR     58  35  42 E8        29.74S
RANTOUL*       CLEAR     62  39  44 E8        29.74S
MATTOON        CLEAR     59  47  64 CALM      29.73S
PARIS*         CLEAR     61  43  51 E6        29.75F
$$

ILZ079-100>102-250400-
SOUTHWEST ILLINOIS

CITY           SKY/WX    TMP DP  RH WIND       PRES   REMARKS
ALTON          CLEAR     57  36  44 SE6       29.73R
BELLEVILLE     CLEAR     59  41  51 E3        29.71F
CAHOKIA*       CLEAR     56  41  57 SE3       29.71S
SPARTA*        CLEAR     56  47  72 CALM      29.74F
$$

ILZ064>066-069>071-074>076-080>082-084>086-088>090-092>094-250400-
SOUTH-CENTRAL ILLINOIS

CITY           SKY/WX    TMP DP  RH WIND       PRES   REMARKS
CARBONDALE     CLEAR     58  49  72 CALM      29.75R
CAIRO*         CLEAR     57  53  86 CALM      29.74R
EFFINGHAM*     CLEAR     54  47  75 CALM      29.75R
MARION         CLEAR     61  46  59 CALM      29.75R
MT. VERNON     CLEAR     51  46  83 CALM      29.74S
CENTRALIA*     CLEAR     56  47  70 CALM      29.74R
SALEM*         CLEAR     57  43  60 CALM      29.75R
$$

ILZ067-068-072-073-078-083-087-091-250400-
SOUTHEAST ILLINOIS

CITY           SKY/WX    TMP DP  RH WIND       PRES   REMARKS
LAWRENCEVILLE  CLEAR     63  46  54 CALM      29.74S
FLORA*         CLEAR     55  47  73 CALM      29.73F
FAIRFIELD*     CLEAR     58  44  58 CALM      29.72F
HARRISBURG*    CLEAR     56  51  84 CALM      29.75R
ROBINSON*      CLEAR     54  46  74 CALM      29.75S
CARMI*         CLEAR     58  52  83 CALM      29.74S
$$

ABBREVIATIONS USED IN REMARKS
   TC - TEMPERATURE IN CELSIUS
  WCI - WIND CHILL INDEX
   HX - HEAT INDEX
  VSB - VISIBILITY
$$





USA.gov is the U.S. government's official web portal to all federal, state and local government web resources and services.